Location: Rounton
(54.4000°N, 1.3500°W)
Time: 06:59:23
(UTC+00:00)

Explorer 7 - Pass Details

Date: 30 November 2021
Orbit: 483 x 674 km, 50.3° (Epoch: 16 January)

Event Time Altitude Azimuth Distance (km) Brightness Sun altitude
Rises 08:16:15 0° 232° (SW) 2,727 10.2 0.8°
Reaches altitude 10° 08:18:42 10° 222° (SW) 1,800 9.5 1.1°
Maximum altitude 08:22:19 31° 160° (SSE) 931 8.9 1.4°
Drops below altitude 10° 08:25:46 10° 97° (E) 1,720 10.4 1.8°
Sets 08:28:04 0° 87° (E) 2,585 11.0 2.1°
